Location:  
MeteoStar

Sort by weather type Sort by elevation Sort by visibility Sort from west to east north Sort from north to south Alphabetically Sort from strongest wind speed Sort from lowest to highest pressure Sort from highest to lowest dew point temperature Sort coolest temperatures to warmest Sort warm temperatures to coolest
 Metric

Current Observations for United Kingdom sorted by highst dew point temperature

Herstmonceux13:00ZNot Avail.68 62121010.5S 4 68170
Lydd Airport 13:20ZClear68 6141011.1SW 8 689
Shoreham Airport13:00ZNot Avail.64 61201010.5NNW 4 646
Saint Catherines Point13:00ZNot Avail.64 60101009.7E 6 6452
Langdon Bay13:00ZNot Avail.66 600.121011.0SW 6 66383
Manston13:00ZClear61 601.751011.4NNW 4 61180
London / Gatwick Airport13:20ZMostly Cloudy59 5941011.1NNE 5 59203
Guernsey Airport13:00ZCloudy59 5971009.2SE 10 59334
Thorney Island13:00ZNot Avail.62 58131010.2ENE 6 6213
Shoeburyness13:00ZMist59 5841011.4N 4 596
Wattisham13:00ZLight Drizzle57 5721011.2NNE 7 57285
London City Airport13:20ZLight Rain59 5751011.1NE 4 5916
Jersey Airport13:00ZNot Avail.60 57201009.4SSE 11 60275
Mildenhall Royal Air Force Base12:56ZLight Rain56 561.751011.5NNE 8 5632
Northolt13:00ZLight Drizzle56 5521011.5NE 7 56124
Stansted Airport13:20ZMist55 552.251012.2NNE 5 55347
Norwich Weather Centre13:20ZLight Drizzle55 551.51012.1N 7 5545
London / Heathrow Airport13:00ZLight Drizzle56 5531011.5NE 7 5678
Farnborough13:00ZNot Avail.56 5571011.4NE 4 56213
Biggin Hill 13:20ZLight Drizzle55 550.121011.2NNE 5 55600
Alderney / Channel Island13:20ZMostly Cloudy59 55141010.1SSE 12 59232
Bournemouth Airport13:00ZNot Avail.56 55141010.5NE 8 5636
Isle Of Portland13:00ZNot Avail.56 54101009.9NE 15 56173
Odiham13:00ZLight Drizzle55 5421011.5NE 5 55403
Cambridge13:20ZMist55 541.871012.1NNE 10 5549
Southend-On-Sea 13:20ZLight Drizzle57 5441011.1N 3 5749
Southampton / Weather Centre13:20ZShowers nearby55 54141011.1NE 6 5529
Luton Airport 13:20ZMist54 541.871012.2NNE 10 Gusting to 20 51524
High Wicombe Hqstc13:00ZMist53 532.51011.7ENE 5 52669
Marham13:00ZRain/Drizzle54 532.51012.5NNE 12 5075
Middle Wallop13:00ZNot Avail.54 53201010.9NE 10 51298
Lakenheath Royal Air Force Base12:56ZCloudy56 5361011.7NNE 8 5632
Benson13:00ZLight Drizzle54 5341011.7NNE 9 51206
Larkhill13:00ZLight Drizzle53 521.51011.2NE 11 49433
Holbeach13:00ZNot Avail.54 52251013.0NNE 20 Gusting to 29 499
Brize Norton13:00ZLight Drizzle52 522.251012.5NE 10 49288
Exeter Airport13:20ZMostly Cloudy55 521.251010.1NE 11 5598
Cranfield13:20ZLight Drizzle52 521.251012.2NNE 12 48364
Boscombe Down13:00ZLight Drizzle53 52151011.2NNE 10 50406
Bedford13:00ZLight Drizzle52 5121012.7NNE 12 48278
Donna Nook13:00ZNot Avail.53 51161013.7N 18 4826
Wainfleet13:00ZNot Avail.53 51201013.0NNE 16 Gusting to 26 489
Culdrose13:00ZCloudy56 51151011.0NE 8 56255
Little Rissington13:00ZNot Avail.50 5031012.2NE 14 45705
Church Lawford13:00ZMist51 5041013.2NE 8 48351
Pershore13:00ZRain51 5041013.7NNE 4 50104
Cranwell13:00ZShowers in Vicinity51 50151013.7NNE 12 47219
Coningsby Royal Air Force Base13:00ZCloudy53 50201013.5NNE 9 5022
East Midlands13:20ZLight Rain50 5041014.2NNE 6 48308
Humberside13:20ZCloudy52 5041014.1NNE 11 48101
Bristol / Lulsgate 13:20ZLight Rain50 5041011.3NE 11 46620
Cardiff-Wales Airport13:20ZCloudy54 50151012.2NE 15 50219
Lyneham13:00ZNot Avail.50 50251011.9NE 14 45475
Staverton Private 13:20ZMostly Cloudy52 502.751012.1NE 9 4995
Birmingham / Airport13:20ZRain50 502.751013.2NNE 7 47324
Cardinham13:00ZNot Avail.53 49251010.7NE 9 50656
Camborne13:00ZCloudy55 49201011.2NNE 11 55285
Mumbles13:00ZNot Avail.57 49301012.5NE 14 Gusting to 25 57114
Shobdon13:00ZNot Avail.51 4941013.7NE 4 50324
Bridlington Mrsc13:00ZNot Avail.52 49301014.5NE 10 4949
Waddington13:00ZCloudy51 49201014NNE 12 47223
Linton-On-Ouse13:00ZCloudy52 49181015.2N 4 5152
Tiree13:00ZNot Avail.56 49151013.7SSW 12 5639
Pembrey Sands13:00ZNot Avail.56 49201012.7NE 12 569
Scilly; Saint MaryS13:00ZNot Avail.56 49251011.9NNE 11 56101
Chivenor13:00ZNot Avail.55 49251011.7ENE 13 5526
Nottingham Weather Centre13:00ZLight Drizzle50 4851014.2NE 10 46383
Crosby13:00ZNot Avail.55 48301014.7NE 6 5526
Aultbea13:00ZClear54 48201013.2SSW 14 5036
Fair Isle13:00ZNot Avail.53 48121012.7SSW 15 48187
Scatsa / Shetland Island13:20ZShowers nearby52 4861011.1SW 16 4772
Benbecula13:20ZClear54 4861012.1SSW 14 5019
Sumburgh Cape 13:20ZClear54 48201012.1SW 14 5016
Shawbury13:00ZLight Drizzle52 48111014.0NNE 4 51249
Milford Haven13:00ZNot Avail.58 47301012.7NE 8 58144
Fylingdales13:00ZNot Avail.48 4730NNE 8 44859
Loftus Samos13:00ZNot Avail.51 47301015.5NE 7 48190
Saint Bees Head13:00ZNot Avail.51 47201015.4N 8 48406
South Uist Range13:00ZNot Avail.55 47131012.5SSW 14 5532
Sule Skerry13:00ZNot Avail.53 47121011.7SW 16 4852
Lerwick13:00ZCloudy52 47131011.7SW 19 Gusting to 29 46269
Leeming13:00ZCloudy52 47201015.4NNE 6 50131
Aberporth13:00ZNot Avail.53 47251013.4NNE 9 50436
Sennybridge13:00ZNot Avail.51 46301013.2ENE 6 491007
Bingley13:00ZNot Avail.49 46301015.0ENE 6 46859
Inverbervie13:00ZNot Avail.52 46201015.2SSW 10 49439
Baltasound13:00ZNot Avail.53 46171011.0SW 18 Gusting to 25 4849
Boulmer13:00ZNot Avail.50 46201016.2NNE 2 5075
Tees-Side13:20ZPartly Cloudy52 46301015.2NNE 7 50121
Hawarden13:00ZNot Avail.54 46201015N 5 5332
Blackpool Airport13:20ZClear55 4641015.1ENE 8 5532
Liverpool Airport 13:20ZPartly Cloudy55 4641014.1ENE 11 5585
Manchester Airport13:20ZPartly Cloudy52 462.751014.2NE 10 49226
Rhyl13:00ZNot Avail.52 45301015.0NNE 5 51252
Charterhall13:00ZNot Avail.53 45251015.7S 4 52367
Dundee / Riverside13:20ZClear54 4561015.1CALM5413
Glasgow Airport13:20ZClear55 4561015.1S 4 5526
Inverness / Dalcross13:20ZClear57 45131014.1SW 12 5729
Kirkwall Airport13:00ZNot Avail.54 45201012.7SSW 12 5068
Newcastle 13:20ZClear54 45301015.3N 2 54265
Leeds And Bradford13:20ZPartly Cloudy50 45251014.4NE 7 47682
Ballypatrick Forest13:00ZNot Avail.54 44201015SSE 4 53511
Lake Vyrnwy13:00ZNot Avail.49 44301014.0NE 9 451181
Aberdaron13:00ZNot Avail.54 44301015NNE 11 51311
Capel Curig13:00ZNot Avail.52 44301014.7E 13 48708
Carlisle13:00ZNot Avail.54 44301015.9N 5491
Machrihanish13:00ZNot Avail.56 44161014.7WSW 3 5642
Wick13:00ZNot Avail.55 44201013S 11 55127
Valley13:00ZClear56 44401014.7NE 11 563
Isle Of Man / Ronaldsway Airport13:00ZClear56 44301015.2E 8 5655
Walney Island13:00ZNot Avail.56 44251015.0NW 6 5649
Portglenone13:00ZNot Avail.56 43201014.5S 6 56209
Castlederg13:00ZNot Avail.58 43251014.2S 4 58167
Prestwick Rnas13:00ZNot Avail.56 43301015.2WSW 2 5685
Altnaharra13:00ZNot Avail.55 43201012.7SSW 8 55265
Stornoway13:00ZNot Avail.55 43201012.0SW 16 5529
Prestwick Airport13:20ZClear57 4361015.1CALM5765
Dundrennan13:00ZNot Avail.53 42251015.0N 4 52374
Lossiemouth13:00ZClear57 42251013.9SW 8 5742
Kinloss13:00ZNot Avail.57 42401013.7WSW 11 5722
West Freugh13:00ZNot Avail.56 42171015.5S 3 5636
Great Dun Fell13:00ZNot Avail.44 4130ENE 9 392778
Shap13:00ZNot Avail.51 41301015.7ENE 3 51816
Keswick13:00ZNot Avail.55 41251015.5SE 5 55265
Strathallan13:00ZNot Avail.55 41251015.5SW 9 55114
Aviemore13:00ZNot Avail.54 41101014.0SSW 5 53721
Tulloch Bridge13:00ZNot Avail.53 41251015.0SSW 7 51777
Leuchars13:00ZNot Avail.55 41251015.5W 5 5539
Edinburgh Airport13:20ZNot Avail.55 4161015.2N 2 55134
Belfast / Harbour13:20ZClear57 41251015.1NNE 4 5716
Belfast / Aldergrove Airport13:00ZNot Avail.57 41251015.0WSW 1 57265
Redesdale13:00ZNot Avail.52 40201016ESE 3 52692
Aberdeen / Dyce13:00ZNot Avail.57 40131014.7SSW 3 57213
Spadeadam13:00ZNot Avail.50 39201015.7ENE 5 48935
Eskdalemuir13:00ZClear52 38301015.7SE 4 51793
Glen Ogle13:00ZNot Avail.45 3825ESE 3 451850
Cairnwell13:00ZNot Avail.41 3310SW 10 353061
Cairngorm13:00ZNot Avail.38 2810SW 7 334084


Atlantic
Tropical Watch